User: anonymous   Login
Location: Chuathbaluk
(61.5726°N, 159.2454°W)
Time: 23:40:00
(UTC+00:00)
Language:

RS-44 - Orbit

View from above orbital plane
View from above orbital plane
View from above satellite
View from above satellite

Ground track
Ground track

The orbit data is extracted from the following two-line orbital elements,

1 44909U 19096E   21023.52108425  .00000033  00000-0  80547-4 0  9990
2 44909  82.5195 209.0890 0218308  72.0792 290.3979 12.79708323 50337
Epoch (UTC): 23 January 2021 12:30:21
Eccentricity: 0.0218308
inclination: 82.5195°
perigee height: 1174 km
apogee height: 1511 km
right ascension of ascending node: 209.0890°
argument of perigee: 72.0792°
revolutions per day: 12.79708323
mean anomaly at epoch: 290.3979°
orbit number at epoch: 5033

The dashed part of the orbit path shows where the satellite is in the earth's shadow,  

DLR